﻿測定場所 (Monitoring sites),日付 (Measurement date),時間 (Measurement time),線量率 最大値 (max) μGy/h,線量率 最小値 (min) μGy/h,線量率 平均値 (average) μGy/h,
足立 (Adachi),2015-06-07,23:01～24:00,0.0426,0.0366,0.0394,
足立 (Adachi),2015-06-07,22:01～23:00,0.0426,0.0362,0.0390,
足立 (Adachi),2015-06-07,21:01～22:00,0.0430,0.0366,0.0395,
足立 (Adachi),2015-06-07,20:01～21:00,0.0429,0.0369,0.0398,
足立 (Adachi),2015-06-07,19:01～20:00,0.0422,0.0364,0.0391,
足立 (Adachi),2015-06-07,18:01～19:00,0.0418,0.0365,0.0396,
足立 (Adachi),2015-06-07,17:01～18:00,0.0431,0.0364,0.0394,
足立 (Adachi),2015-06-07,16:01～17:00,0.0424,0.0365,0.0392,
足立 (Adachi),2015-06-07,15:01～16:00,0.0429,0.0369,0.0393,
足立 (Adachi),2015-06-07,14:01～15:00,0.0426,0.0368,0.0394,
足立 (Adachi),2015-06-07,13:01～14:00,0.0430,0.0366,0.0395,
足立 (Adachi),2015-06-07,12:01～13:00,0.0430,0.0369,0.0394,
足立 (Adachi),2015-06-07,11:01～12:00,0.0419,0.0361,0.0390,
足立 (Adachi),2015-06-07,10:01～11:00,0.0413,0.0365,0.0389,
足立 (Adachi),2015-06-07,09:01～10:00,0.0427,0.0354,0.0395,
足立 (Adachi),2015-06-07,08:01～09:00,0.0429,0.0361,0.0394,
足立 (Adachi),2015-06-07,07:01～08:00,0.0438,0.0369,0.0397,
足立 (Adachi),2015-06-07,06:01～07:00,0.0428,0.0367,0.0392,
足立 (Adachi),2015-06-07,05:01～06:00,0.0447,0.0370,0.0393,
足立 (Adachi),2015-06-07,04:01～05:00,0.0424,0.0363,0.0391,
足立 (Adachi),2015-06-07,03:01～04:00,0.0421,0.0366,0.0391,
足立 (Adachi),2015-06-07,02:01～03:00,0.0418,0.0362,0.0388,
足立 (Adachi),2015-06-07,01:01～02:00,0.0429,0.0370,0.0393,
足立 (Adachi),2015-06-07,00:01～01:00,0.0427,0.0364,0.0387,
足立 (Adachi),2015-06-06,23:01～24:00,0.0425,0.0361,0.0390,
足立 (Adachi),2015-06-06,22:01～23:00,0.0439,0.0367,0.0387,
足立 (Adachi),2015-06-06,21:01～22:00,0.0429,0.0366,0.0392,
足立 (Adachi),2015-06-06,20:01～21:00,0.0415,0.0363,0.0385,
足立 (Adachi),2015-06-06,19:01～20:00,0.0429,0.0364,0.0388,
足立 (Adachi),2015-06-06,18:01～19:00,0.0412,0.0368,0.0388,
足立 (Adachi),2015-06-06,17:01～18:00,0.0411,0.0366,0.0389,
足立 (Adachi),2015-06-06,16:01～17:00,0.0421,0.0363,0.0389,
足立 (Adachi),2015-06-06,15:01～16:00,0.0418,0.0362,0.0387,
足立 (Adachi),2015-06-06,14:01～15:00,0.0418,0.0366,0.0390,
足立 (Adachi),2015-06-06,13:01～14:00,0.0418,0.0359,0.0385,
足立 (Adachi),2015-06-06,12:01～13:00,0.0412,0.0362,0.0385,
足立 (Adachi),2015-06-06,11:01～12:00,0.0423,0.0363,0.0386,
足立 (Adachi),2015-06-06,10:01～11:00,0.0429,0.0365,0.0383,
足立 (Adachi),2015-06-06,09:01～10:00,0.0420,0.0351,0.0384,
足立 (Adachi),2015-06-06,08:01～09:00,0.0444,0.0358,0.0389,
足立 (Adachi),2015-06-06,07:01～08:00,0.0440,0.0370,0.0407,
足立 (Adachi),2015-06-06,06:01～07:00,0.0467,0.0386,0.0426,
足立 (Adachi),2015-06-06,05:01～06:00,0.0468,0.0396,0.0439,
足立 (Adachi),2015-06-06,04:01～05:00,0.0508,0.0419,0.0462,
足立 (Adachi),2015-06-06,03:01～04:00,0.0536,0.0467,0.0500,
足立 (Adachi),2015-06-06,02:01～03:00,0.0537,0.0462,0.0493,
足立 (Adachi),2015-06-06,01:01～02:00,0.0575,0.0485,0.0525,
足立 (Adachi),2015-06-06,00:01～01:00,0.0587,0.0497,0.0540,
足立 (Adachi),2015-06-05,23:01～24:00,0.0597,0.0489,0.0552,
足立 (Adachi),2015-06-05,22:01～23:00,0.0580,0.0483,0.0523,
足立 (Adachi),2015-06-05,21:01～22:00,0.0537,0.0477,0.0511,
足立 (Adachi),2015-06-05,20:01～21:00,0.0592,0.0505,0.0541,
足立 (Adachi),2015-06-05,19:01～20:00,0.0613,0.0533,0.0577,
足立 (Adachi),2015-06-05,18:01～19:00,0.0581,0.0473,0.0523,
足立 (Adachi),2015-06-05,17:01～18:00,0.0543,0.0459,0.0505,
足立 (Adachi),2015-06-05,16:01～17:00,0.0529,0.0401,0.0467,
足立 (Adachi),2015-06-05,15:01～16:00,0.0438,0.0378,0.0406,
足立 (Adachi),2015-06-05,14:01～15:00,0.0447,0.0372,0.0406,
足立 (Adachi),2015-06-05,13:01～14:00,0.0435,0.0381,0.0405,
足立 (Adachi),2015-06-05,12:01～13:00,0.0440,0.0385,0.0408,
足立 (Adachi),2015-06-05,11:01～12:00,0.0445,0.0372,0.0406,
足立 (Adachi),2015-06-05,10:01～11:00,0.0439,0.0375,0.0405,
足立 (Adachi),2015-06-05,09:01～10:00,0.0436,0.0378,0.0407,
足立 (Adachi),2015-06-05,08:01～09:00,0.0437,0.0382,0.0405,
足立 (Adachi),2015-06-05,07:01～08:00,0.0438,0.0374,0.0402,
足立 (Adachi),2015-06-05,06:01～07:00,0.0438,0.0372,0.0405,
足立 (Adachi),2015-06-05,05:01～06:00,0.0426,0.0357,0.0386,
足立 (Adachi),2015-06-05,04:01～05:00,0.0424,0.0362,0.0385,
足立 (Adachi),2015-06-05,03:01～04:00,0.0416,0.0361,0.0383,
足立 (Adachi),2015-06-05,02:01～03:00,0.0432,0.0369,0.0390,
足立 (Adachi),2015-06-05,01:01～02:00,0.0420,0.0366,0.0389,
足立 (Adachi),2015-06-05,00:01～01:00,0.0424,0.0354,0.0385,
足立 (Adachi),2015-06-04,23:01～24:00,0.0424,0.0361,0.0382,
足立 (Adachi),2015-06-04,22:01～23:00,0.0431,0.0362,0.0386,
足立 (Adachi),2015-06-04,21:01～22:00,0.0412,0.0361,0.0384,
足立 (Adachi),2015-06-04,20:01～21:00,0.0436,0.0362,0.0386,
足立 (Adachi),2015-06-04,19:01～20:00,0.0422,0.0363,0.0387,
足立 (Adachi),2015-06-04,18:01～19:00,0.0407,0.0359,0.0383,
足立 (Adachi),2015-06-04,17:01～18:00,0.0440,0.0359,0.0404,
足立 (Adachi),2015-06-04,16:01～17:00,0.0438,0.0380,0.0409,
足立 (Adachi),2015-06-04,15:01～16:00,0.0439,0.0377,0.0407,
足立 (Adachi),2015-06-04,14:01～15:00,0.0435,0.0368,0.0405,
足立 (Adachi),2015-06-04,13:01～14:00,0.0429,0.0372,0.0406,
足立 (Adachi),2015-06-04,12:01～13:00,0.0426,0.0372,0.0402,
足立 (Adachi),2015-06-04,11:01～12:00,0.0429,0.0371,0.0402,
足立 (Adachi),2015-06-04,10:01～11:00,0.0430,0.0379,0.0406,
足立 (Adachi),2015-06-04,09:01～10:00,0.0441,0.0363,0.0400,
足立 (Adachi),2015-06-04,08:01～09:00,0.0421,0.0368,0.0394,
足立 (Adachi),2015-06-04,07:01～08:00,0.0438,0.0366,0.0397,
足立 (Adachi),2015-06-04,06:01～07:00,0.0424,0.0363,0.0394,
足立 (Adachi),2015-06-04,05:01～06:00,0.0430,0.0375,0.0400,
足立 (Adachi),2015-06-04,04:01～05:00,0.0432,0.0368,0.0398,
足立 (Adachi),2015-06-04,03:01～04:00,0.0427,0.0369,0.0397,
足立 (Adachi),2015-06-04,02:01～03:00,0.0438,0.0364,0.0399,
足立 (Adachi),2015-06-04,01:01～02:00,0.0429,0.0366,0.0395,
足立 (Adachi),2015-06-04,00:01～01:00,0.0441,0.0372,0.0407,
足立 (Adachi),2015-06-03,23:01～24:00,0.0430,0.0370,0.0403,
足立 (Adachi),2015-06-03,22:01～23:00,0.0442,0.0372,0.0404,
足立 (Adachi),2015-06-03,21:01～22:00,0.0445,0.0370,0.0404,
足立 (Adachi),2015-06-03,20:01～21:00,0.0446,0.0371,0.0401,
足立 (Adachi),2015-06-03,19:01～20:00,0.0428,0.0368,0.0401,
足立 (Adachi),2015-06-03,18:01～19:00,0.0425,0.0368,0.0398,
足立 (Adachi),2015-06-03,17:01～18:00,0.0432,0.0368,0.0402,
足立 (Adachi),2015-06-03,16:01～17:00,0.0438,0.0375,0.0405,
足立 (Adachi),2015-06-03,15:01～16:00,0.0449,0.0372,0.0404,
足立 (Adachi),2015-06-03,14:01～15:00,0.0463,0.0385,0.0422,
足立 (Adachi),2015-06-03,13:01～14:00,0.0517,0.0408,0.0452,
足立 (Adachi),2015-06-03,12:01～13:00,0.0548,0.0434,0.0487,
足立 (Adachi),2015-06-03,11:01～12:00,0.0629,0.0517,0.0578,
足立 (Adachi),2015-06-03,10:01～11:00,0.0627,0.0535,0.0580,
足立 (Adachi),2015-06-03,09:01～10:00,0.0635,0.0560,0.0590,
足立 (Adachi),2015-06-03,08:01～09:00,0.0628,0.0535,0.0590,
足立 (Adachi),2015-06-03,07:01～08:00,0.0612,0.0521,0.0567,
足立 (Adachi),2015-06-03,06:01～07:00,0.0550,0.0436,0.0487,
足立 (Adachi),2015-06-03,05:01～06:00,0.0472,0.0386,0.0432,
足立 (Adachi),2015-06-03,04:01～05:00,0.0447,0.0392,0.0418,
足立 (Adachi),2015-06-03,03:01～04:00,0.0449,0.0387,0.0420,
足立 (Adachi),2015-06-03,02:01～03:00,0.0439,0.0400,0.0418,
足立 (Adachi),2015-06-03,01:01～02:00,0.0440,0.0387,0.0417,
足立 (Adachi),2015-06-03,00:01～01:00,0.0459,0.0392,0.0422,
足立 (Adachi),2015-06-02,23:01～24:00,0.0451,0.0394,0.0422,
足立 (Adachi),2015-06-02,22:01～23:00,0.0447,0.0394,0.0421,
足立 (Adachi),2015-06-02,21:01～22:00,0.0455,0.0396,0.0424,
足立 (Adachi),2015-06-02,20:01～21:00,0.0448,0.0396,0.0422,
足立 (Adachi),2015-06-02,19:01～20:00,0.0455,0.0394,0.0419,
足立 (Adachi),2015-06-02,18:01～19:00,0.0458,0.0385,0.0424,
足立 (Adachi),2015-06-02,17:01～18:00,0.0448,0.0394,0.0419,
足立 (Adachi),2015-06-02,16:01～17:00,0.0454,0.0376,0.0420,
足立 (Adachi),2015-06-02,15:01～16:00,0.0455,0.0387,0.0420,
足立 (Adachi),2015-06-02,14:01～15:00,0.0455,0.0391,0.0417,
足立 (Adachi),2015-06-02,13:01～14:00,0.0455,0.0387,0.0418,
足立 (Adachi),2015-06-02,12:01～13:00,0.0445,0.0389,0.0418,
足立 (Adachi),2015-06-02,11:01～12:00,0.0455,0.0393,0.0419,
足立 (Adachi),2015-06-02,10:01～11:00,0.0449,0.0378,0.0414,
足立 (Adachi),2015-06-02,09:01～10:00,0.0435,0.0390,0.0415,
足立 (Adachi),2015-06-02,08:01～09:00,0.0454,0.0379,0.0419,
足立 (Adachi),2015-06-02,07:01～08:00,0.0440,0.0383,0.0419,
足立 (Adachi),2015-06-02,06:01～07:00,0.0454,0.0390,0.0413,
足立 (Adachi),2015-06-02,05:01～06:00,0.0433,0.0366,0.0393,
足立 (Adachi),2015-06-02,04:01～05:00,0.0424,0.0367,0.0392,
足立 (Adachi),2015-06-02,03:01～04:00,0.0436,0.0371,0.0395,
足立 (Adachi),2015-06-02,02:01～03:00,0.0437,0.0373,0.0396,
足立 (Adachi),2015-06-02,01:01～02:00,0.0421,0.0365,0.0397,
足立 (Adachi),2015-06-02,00:01～01:00,0.0428,0.0370,0.0396,
足立 (Adachi),2015-06-01,23:01～24:00,0.0428,0.0357,0.0395,
足立 (Adachi),2015-06-01,22:01～23:00,0.0437,0.0370,0.0400,
足立 (Adachi),2015-06-01,21:01～22:00,0.0425,0.0358,0.0396,
足立 (Adachi),2015-06-01,20:01～21:00,0.0447,0.0379,0.0415,
足立 (Adachi),2015-06-01,19:01～20:00,0.0465,0.0396,0.0418,
足立 (Adachi),2015-06-01,18:01～19:00,0.0459,0.0394,0.0419,
足立 (Adachi),2015-06-01,17:01～18:00,0.0441,0.0388,0.0416,
足立 (Adachi),2015-06-01,16:01～17:00,0.0443,0.0388,0.0420,
足立 (Adachi),2015-06-01,15:01～16:00,0.0444,0.0391,0.0416,
足立 (Adachi),2015-06-01,14:01～15:00,0.0445,0.0385,0.0417,
足立 (Adachi),2015-06-01,13:01～14:00,0.0454,0.0393,0.0420,
足立 (Adachi),2015-06-01,12:01～13:00,0.0454,0.0388,0.0417,
足立 (Adachi),2015-06-01,11:01～12:00,0.0459,0.0384,0.0416,
足立 (Adachi),2015-06-01,10:01～11:00,0.0451,0.0393,0.0420,
足立 (Adachi),2015-06-01,09:01～10:00,0.0442,0.0383,0.0413,
足立 (Adachi),2015-06-01,08:01～09:00,0.0456,0.0390,0.0420,
足立 (Adachi),2015-06-01,07:01～08:00,0.0447,0.0390,0.0418,
足立 (Adachi),2015-06-01,06:01～07:00,0.0437,0.0389,0.0414,
足立 (Adachi),2015-06-01,05:01～06:00,0.0444,0.0381,0.0416,
足立 (Adachi),2015-06-01,04:01～05:00,0.0433,0.0379,0.0414,
足立 (Adachi),2015-06-01,03:01～04:00,0.0450,0.0384,0.0415,
足立 (Adachi),2015-06-01,02:01～03:00,0.0437,0.0375,0.0412,
足立 (Adachi),2015-06-01,01:01～02:00,0.0446,0.0388,0.0411,
足立 (Adachi),2015-06-01,00:01～01:00,0.0451,0.0382,0.0410,
